Powrót do katalogu

COSMOS 1823 DEB

AktywnyLEO
NORAD 18751·DEBRIS·🇷🇺 Russia

Wystrzelony Feb 20, 1987 z Plesetsk Cosmodrome

Loading…

Następne Przeloty (najbliższe 24 godziny)

TLE

ŚwieżeSource: Space-Track

Epoka: Sep 14, 2026, 09:07 UTC

1 18751U 87020AC  26257.38004782  .00000017  00000-0  27236-3 0  9994
2 18751  73.6265 261.3168 0076146  29.9447  35.6257 12.33031830743229

Śledź COSMOS 1823 DEB w czasie rzeczywistym z AllMySat

Download on the App Store